Vertical_Velocity
-0 -0 -3 -3 -5 -3 -2 -2 -1 -1 -1 -1 0 0 1 3 1 -1 0 1 3 3 2 3 3 4 0 -0 5 6 -0 1 4 1 1 -2 -3 3 -2 -1 2 5 4 1 3 -3 -0
-4 -3 -1 -3 1 -0 -4 0 -0 0 0 1 2 2 2 1 2 4 2 1 2 3 2 2 3 0 2 7 2 3 -0 3 0 3 1 -2 2 -0 -7 -0 1 2 4 2 -2 -3 2
-1 3 1 -2 -2 -3 -3 -2 -2 -2 -0 -0 0 1 1 3 2 2 2 3 3 2 2 1 2 2 1 6 3 1 4 2 0 1 0 5 -5 -5 5 1 6 1 3 -0 3 -0 -1
-1 -5 -1 -1 1 -2 -2 -1 -2 -3 -3 -2 -2 -2 -2 0 1 1 2 2 3 2 0 -2 1 -1 7 0 4 7 -0 1 -0 2 3 2 2 2 0 1 2 -4 1 1 0 -0 3
-2 -1 -1 0 -2 -3 -1 -1 -3 -2 -2 -3 -3 -3 -3 -4 -5 0 1 12 7 5 -1 -3 -1 -2 0 10 8 -5 4 -0 1 3 0 -1 -2 1 1 -1 0 -3 5 4 -5 -1 1
-1 -1 -3 -4 -2 -1 -2 -2 -2 -2 -2 -2 -2 -1 -1 -4 -4 -8 3 -6 8 10 11 -3 2 1 12 11 6 1 2 1 1 -0 -2 -1 -3 -1 2 -3 -1 4 6 3 2 -4 -0
-4 -3 -1 1 0 -3 -2 -1 -0 -2 1 -3 -4 -2 -5 -5 -3 -2 -3 -4 -5 -8 11 17 3 -2 13 2 2 2 1 3 3 2 3 -2 -5 2 15 11 4 3 -1 -2 3 1 -6
-3 -1 -0 -2 -3 -1 1 -2 -2 -3 -9 -3 -3 -4 -4 -3 -3 -3 -1 -3 -2 2 -16 7 7 10 9 7 4 4 4 2 -2 5 -5 -4 2 11 3 2 -2 -2 -1 -0 -1 1 -3
-2 -3 -3 -3 -4 -3 -4 -6 -3 -5 -3 -3 -3 -2 -3 -4 -4 -1 -4 -2 -0 -3 -7 2 9 6 10 5 3 -1 -4 2 5 -4 6 -3 22 -11 2 -1 -0 1 1 3 3 -2 -2
1 -2 -4 -5 -4 -3 -3 -2 -6 -5 -5 -6 -4 -0 -0 -6 -2 -2 -4 -1 -3 0 -8 17 -7 3 5 14 -8 -1 4 2 -2 11 3 -10 4 2 2 -1 -3 -4 5 -0 0 -4 -2
-0 2 -4 -2 -5 -5 -3 -6 -3 -2 -2 -1 -5 -3 2 -3 -5 -1 -3 -0 -3 8 -10 2 6 0 11 2 24 7 12 -5 6 11 -7 21 7 -0 -3 20 -5 13 1 1 -2 -3 -6
-4 -1 -6 -0 -2 -4 -5 -5 -3 -1 -4 -3 -2 -4 -1 5 -3 1 -1 -5 1 -4 -4 -6 0 5 2 5 7 12 -3 -4 5 -0 -4 1 4 -2 6 3 -0 1 -0 3 0 1 -29
-1 -6 -1 -1 -6 -1 -6 -3 -4 -6 -1 -1 3 0 -2 3 -3 -0 -1 -1 -5 -8 2 -3 -1 7 1 -1 1 6 11 4 0 -2 -6 8 -2 -2 2 2 -4 2 6 -7 -9 -9 -7
-1 -6 0 -6 -1 -6 -5 -6 -7 -5 -2 -3 1 0 4 2 -1 -2 -2 -0 -1 -0 1 4 7 2 5 0 1 3 2 -5 5 -6 3 -1 -4 12 8 3 7 8 6 2 5 -6 14
-3 -1 -6 -1 -6 -8 -2 -4 -2 -0 -1 -3 -1 -3 -1 3 -1 0 -2 2 -2 3 2 -2 -1 -1 4 4 -2 6 1 0 2 -1 1 5 -6 8 3 1 7 0 -24 25 -7 -4 -4
-4 -4 -0 1 -7 -5 -4 -3 -4 -4 -3 -3 -5 -5 -1 -0 -1 -0 -0 -3 1 0 2 0 -2 -1 37 12 2 -0 8 7 2 -1 5 -1 -2 -1 -0 4 -4 -3 19 -0 -6 -13 -9
-4 -7 1 -6 -7 -3 -1 -2 -7 -6 -3 -2 -1 -7 -2 4 2 -1 -1 1 1 -3 1 2 1 0 4 -5 -3 -1 -6 7 -0 11 -0 3 -0 2 2 -5 11 1 -5 -5 11 -14 -6
-7 -2 0 -3 -6 -4 -4 -2 -4 -2 -4 -2 -6 -9 -6 -5 0 2 -0 -0 -1 3 -3 -0 2 -3 -0 4 -2 -4 2 5 4 5 -2 7 -2 -6 4 1 -1 1 1 0 -8 -1 -9
-0 1 -6 -2 -4 -4 -5 -0 -6 -3 -2 -0 0 -1 -3 -1 -1 -0 4 1 2 -1 -1 2 1 0 -3 -0 -6 -4 -3 6 3 -0 -9 17 -11 1 -4 -4 -1 -7 3 2 -1 2 -16
-2 -1 -2 -6 -1 -5 -6 -3 -5 -7 -3 -7 -5 -8 -4 -3 -0 -1 1 2 2 5 2 -0 2 -1 -1 1 2 4 2 -3 -3 1 4 -2 -3 -2 -4 18 4 -6 15 12 15 -16 25
1 0 -1 -3 -4 -7 -5 -3 -4 -7 -7 -1 -4 -6 -7 -6 -2 -1 1 2 -2 -1 3 3 2 -0 -2 -1 -5 -3 1 4 -1 -0 3 0 1 5 3 3 0 2 8 3 -18 16 -15
-0 -2 -5 -1 -1 -3 -4 -0 -4 -2 -6 -1 -4 -4 3 -3 -5 -3 -5 1 2 -0 3 -0 4 3 3 1 -0 1 0 2 1 1 2 2 1 -2 -2 -0 -1 -4 -0 1 -3 -3 -13
-2 -2 -2 1 0 -2 -5 -1 -2 -4 -4 -7 0 4 2 -2 2 -2 1 -1 -0 1 -0 0 3 4 2 1 3 3 -0 -3 0 -2 2 -4 1 7 -6 4 4 -22 16 6 13 4 12
-3 -2 -2 1 -0 -1 -3 -3 -3 3 1 -2 -4 -0 3 5 -3 -5 -0 1 -1 -2 1 1 -2 1 4 4 1 1 2 0 2 2 2 -1 2 8 -7 10 -28 28 12 2 5 3 5
-1 -2 -1 3 -1 -5 -4 -0 -2 -2 -1 -2 -4 -1 2 3 4 4 -4 -2 -1 -3 1 -1 2 -0 1 3 8 1 5 2 -1 1 4 2 5 -3 -4 1 8 -7 -0 5 1 8 -4
1 0 -2 1 -3 1 -5 -1 -1 -3 -4 -3 -7 -1 -2 -5 4 2 2 -1 2 2 -0 1 -1 0 0 -1 -0 2 3 1 3 5 3 4 4 6 1 -2 -4 5 -3 -1 -1 -9 6
1 -3 -0 2 1 1 -4 -1 -2 -2 -1 -2 -2 -5 -1 -4 -0 -2 -0 -1 -1 1 2 2 2 1 0 1 -1 -1 1 1 5 5 6 7 3 1 5 1 -5 2 2 -6 -4 17 -4
-2 -2 1 2 -0 -1 -3 -3 -5 -1 -3 -3 -3 -3 -4 -2 -5 -3 -1 -1 -0 1 1 2 1 4 1 1 0 3 -2 -2 -1 3 4 1 -2 7 5 -1 0 9 1 -0 4 3 0
-6 -0 -0 1 -1 -3 -2 -1 -5 -1 -3 -2 -5 -3 -6 -8 -6 -3 -2 -3 -1 -0 -1 0 -1 0 -2 2 4 -0 2 1 1 -2 -2 -5 3 0 -3 1 2 4 3 1 -1 1 0
Height
5775 5773 5771 5769 5766 5764 5762 5759 5756 5752 5750 5746 5743 5741 5738 5737 5735 5735 5735 5735 5736 5736 5737 5739 5741 5745 5748 5751 5755 5755 5757 5760 5762 5763 5764 5767 5769 5771 5773 5773 5776 5777 5779 5781 5782 5784 5787
5772 5770 5768 5765 5763 5760 5757 5753 5748 5744 5740 5736 5732 5729 5727 5724 5722 5723 5723 5724 5725 5725 5727 5728 5731 5733 5738 5744 5746 5747 5749 5752 5755 5757 5758 5761 5762 5764 5767 5769 5771 5773 5774 5774 5777 5780 5781
5767 5764 5763 5760 5755 5752 5749 5744 5740 5735 5729 5723 5719 5716 5712 5711 5711 5711 5710 5711 5713 5714 5715 5717 5720 5723 5728 5735 5736 5739 5740 5743 5746 5749 5752 5753 5755 5758 5761 5762 5764 5766 5768 5770 5772 5773 5775
5763 5762 5757 5754 5749 5746 5741 5735 5728 5722 5716 5710 5705 5701 5698 5697 5694 5695 5697 5697 5698 5700 5702 5705 5706 5711 5717 5721 5725 5728 5732 5735 5737 5740 5743 5745 5748 5749 5753 5757 5758 5760 5762 5765 5766 5767 5770
5758 5754 5751 5747 5743 5738 5731 5725 5718 5711 5706 5701 5696 5692 5688 5684 5682 5679 5678 5678 5681 5684 5686 5690 5695 5698 5705 5711 5715 5718 5722 5725 5728 5732 5734 5737 5739 5741 5746 5750 5753 5755 5758 5759 5760 5762 5763
5753 5749 5745 5741 5735 5729 5723 5715 5709 5703 5698 5692 5686 5682 5677 5673 5669 5666 5662 5661 5660 5665 5671 5674 5680 5686 5693 5699 5703 5707 5710 5714 5718 5722 5723 5727 5730 5734 5739 5744 5750 5750 5750 5752 5752 5756 5757
5747 5743 5738 5734 5728 5722 5715 5708 5701 5696 5690 5684 5678 5672 5668 5662 5657 5652 5648 5647 5648 5651 5654 5660 5663 5670 5675 5681 5689 5695 5698 5703 5706 5710 5715 5718 5720 5727 5739 5738 5738 5737 5739 5742 5747 5750 5752
5742 5738 5733 5728 5722 5715 5708 5702 5694 5690 5684 5676 5669 5664 5658 5652 5647 5642 5639 5636 5637 5638 5640 5645 5650 5657 5661 5665 5674 5681 5687 5692 5697 5702 5705 5707 5708 5726 5726 5725 5728 5730 5733 5737 5741 5742 5744
5737 5733 5728 5722 5715 5708 5701 5694 5688 5683 5676 5668 5661 5657 5650 5644 5638 5633 5629 5628 5627 5627 5628 5637 5640 5646 5652 5655 5659 5667 5675 5681 5686 5690 5694 5698 5708 5711 5714 5715 5718 5723 5726 5733 5734 5733 5735
5730 5727 5722 5716 5708 5701 5694 5688 5684 5677 5669 5661 5654 5649 5643 5637 5632 5625 5621 5619 5617 5617 5617 5630 5629 5635 5640 5645 5648 5655 5662 5670 5674 5681 5685 5686 5693 5699 5704 5707 5711 5713 5720 5722 5722 5724 5725
5725 5722 5716 5709 5702 5695 5688 5682 5677 5672 5664 5656 5648 5641 5635 5628 5624 5619 5614 5611 5609 5610 5610 5616 5621 5624 5630 5634 5644 5647 5652 5657 5665 5672 5676 5680 5687 5691 5695 5702 5703 5707 5709 5711 5711 5712 5714
5719 5716 5711 5704 5697 5690 5682 5676 5670 5665 5657 5649 5641 5634 5628 5623 5617 5611 5607 5605 5605 5605 5604 5608 5613 5616 5620 5625 5632 5638 5641 5647 5654 5659 5664 5668 5673 5678 5684 5689 5693 5695 5699 5700 5701 5702 5697
5714 5710 5705 5699 5692 5685 5678 5671 5665 5657 5650 5643 5636 5629 5622 5616 5612 5606 5602 5600 5599 5597 5601 5604 5607 5611 5613 5617 5622 5627 5633 5638 5643 5649 5654 5658 5662 5669 5674 5679 5682 5684 5689 5691 5690 5688 5685
5709 5704 5700 5693 5687 5680 5673 5666 5660 5652 5643 5636 5630 5623 5617 5611 5606 5601 5598 5597 5594 5595 5596 5599 5602 5606 5611 5613 5616 5619 5623 5627 5633 5637 5642 5645 5652 5658 5665 5669 5674 5677 5679 5680 5679 5681 5685
5704 5698 5694 5689 5683 5676 5670 5662 5656 5649 5640 5632 5625 5617 5611 5605 5601 5597 5596 5594 5591 5590 5591 5594 5599 5601 5604 5608 5612 5614 5617 5621 5625 5628 5632 5635 5639 5646 5652 5656 5661 5664 5665 5673 5671 5670 5670
5698 5693 5689 5684 5679 5673 5665 5658 5652 5644 5636 5630 5622 5613 5606 5601 5597 5594 5592 5591 5589 5587 5588 5591 5594 5596 5597 5602 5605 5608 5610 5615 5618 5620 5623 5625 5628 5633 5638 5644 5648 5650 5657 5658 5658 5657 5658
5693 5688 5684 5679 5675 5669 5661 5655 5649 5639 5633 5627 5618 5608 5602 5597 5595 5591 5589 5588 5587 5586 5587 5589 5590 5591 5593 5595 5598 5601 5603 5608 5609 5613 5613 5616 5619 5622 5626 5631 5638 5642 5643 5646 5650 5650 5649
5687 5683 5678 5674 5669 5664 5657 5652 5645 5636 5630 5623 5616 5607 5599 5594 5592 5588 5585 5584 5584 5582 5582 5583 5585 5586 5587 5589 5590 5593 5596 5598 5601 5602 5604 5607 5608 5611 5617 5621 5625 5628 5631 5634 5635 5640 5643
5681 5677 5672 5667 5665 5659 5653 5647 5641 5632 5625 5619 5613 5606 5598 5592 5588 5585 5583 5580 5577 5576 5575 5577 5577 5578 5580 5581 5583 5582 5586 5589 5590 5593 5595 5599 5599 5602 5606 5611 5614 5617 5623 5627 5629 5630 5631
5676 5671 5667 5663 5659 5653 5649 5643 5636 5628 5621 5616 5609 5602 5596 5589 5584 5580 5577 5575 5572 5571 5570 5569 5571 5569 5571 5572 5574 5576 5578 5580 5582 5584 5585 5587 5591 5593 5597 5603 5605 5608 5613 5615 5616 5615 5621
5670 5666 5661 5658 5653 5647 5643 5638 5631 5624 5616 5612 5604 5598 5590 5584 5579 5574 5570 5566 5564 5563 5563 5562 5564 5563 5563 5564 5565 5566 5569 5571 5573 5575 5576 5578 5581 5584 5587 5591 5593 5597 5601 5602 5602 5609 5606
5663 5660 5656 5654 5647 5641 5638 5632 5626 5620 5613 5606 5599 5593 5587 5578 5572 5568 5563 5561 5559 5556 5554 5553 5554 5555 5555 5554 5556 5557 5557 5559 5562 5564 5566 5569 5572 5574 5576 5578 5581 5583 5587 5591 5594 5595 5598
5658 5653 5650 5647 5641 5635 5631 5627 5622 5615 5609 5600 5593 5586 5579 5574 5565 5561 5557 5554 5552 5550 5548 5545 5544 5544 5544 5545 5545 5545 5544 5546 5550 5552 5555 5558 5561 5563 5566 5567 5568 5570 5577 5579 5583 5585 5588
5651 5647 5644 5640 5635 5630 5626 5622 5617 5610 5604 5595 5586 5577 5569 5566 5558 5552 5548 5545 5542 5540 5540 5539 5536 5535 5535 5534 5535 5536 5536 5536 5538 5541 5544 5546 5550 5551 5554 5555 5554 5564 5562 5566 5568 5571 5572
5647 5643 5640 5634 5630 5625 5619 5615 5611 5603 5596 5588 5579 5570 5561 5555 5549 5544 5538 5535 5532 5529 5529 5529 5528 5527 5526 5526 5526 5526 5528 5527 5528 5530 5533 5537 5539 5540 5540 5541 5546 5548 5550 5553 5556 5559 5560
5639 5636 5633 5629 5624 5619 5614 5609 5604 5597 5589 5581 5572 5561 5552 5545 5538 5530 5525 5520 5519 5517 5517 5517 5517 5517 5518 5517 5516 5517 5517 5518 5519 5520 5522 5525 5528 5529 5530 5530 5531 5535 5537 5537 5540 5544 5547
5633 5630 5626 5623 5618 5613 5608 5603 5596 5590 5582 5573 5564 5554 5543 5534 5525 5516 5512 5509 5507 5505 5505 5507 5507 5508 5508 5508 5508 5508 5509 5508 5509 5510 5513 5513 5514 5516 5517 5518 5520 5521 5522 5525 5529 5534 5532
5627 5624 5620 5616 5612 5607 5602 5596 5589 5582 5574 5566 5557 5546 5536 5526 5516 5509 5504 5501 5498 5497 5495 5496 5497 5498 5498 5499 5499 5500 5500 5500 5500 5501 5501 5502 5503 5506 5507 5507 5509 5512 5512 5514 5517 5517 5518
5621 5618 5613 5609 5606 5601 5595 5589 5583 5575 5568 5560 5550 5539 5528 5519 5511 5504 5498 5494 5490 5487 5486 5485 5485 5486 5487 5489 5490 5490 5491 5491 5492 5492 5493 5494 5495 5496 5498 5498 5499 5500 5501 5502 5502 5504 5506